�N����,����,�~����,�C��,���x,�C��,����,���ϕ���,�ő�u�ԕ���,�ő厞����,���˗�,�I�_���x,�n�����x,�ő啗���N��,DTYPE
"20/02/05","00:10",0.0,1.0,82.5,1014.0,302.0,1.2,2.5,345.2,0.00,-1.6,6.8,"00:01:20",1
"20/02/05","00:20",0.0,0.7,83.3,1014.0,324.0,2.1,2.9,324.7,0.00,-1.8,6.5,"00:12:32",1
"20/02/05","00:30",0.0,0.5,84.2,1014.0,332.7,2.1,2.6,334.4,0.00,-1.8,6.6,"00:26:16",1
"20/02/05","00:40",0.0,0.3,84.9,1013.8,322.5,2.0,2.7,337.1,0.00,-1.9,6.7,"00:30:56",1
"20/02/05","00:50",0.0,0.4,85.6,1014.0,313.7,2.0,2.2,324.0,0.00,-1.7,6.5,"00:48:32",1
"20/02/05","01:00",0.0,0.3,85.9,1013.5,292.1,1.5,1.8,304.7,0.00,-1.7,6.6,"00:51:28",1
"20/02/05","01:10",0.0,0.4,86.5,1013.3,307.4,1.3,2.2,322.7,0.00,-1.5,6.4,"01:04:24",1
"20/02/05","01:20",0.0,0.3,86.9,1013.3,327.5,1.6,2.4,323.3,0.00,-1.6,6.2,"01:18:24",1
"20/02/05","01:30",0.0,-0.2,87.3,1013.0,313.5,1.2,2.5,338.3,0.00,-2.0,6.3,"01:22:00",1
"20/02/05","01:40",0.0,-0.4,87.9,1013.0,324.3,1.3,2.0,330.6,0.00,-2.1,6.2,"01:35:04",1
"20/02/05","01:50",0.0,-0.3,88.3,1012.8,330.9,1.6,2.2,328.5,0.00,-2.0,6.1,"01:42:08",1
"20/02/05","02:00",0.0,-0.4,88.6,1012.6,310.1,1.3,1.9,319.1,0.00,-2.0,6.2,"01:50:24",1
"20/02/05","02:10",0.0,-0.4,89.0,1013.0,328.7,1.5,2.0,325.2,0.00,-1.9,6.1,"02:02:24",1
"20/02/05","02:20",0.0,-0.6,89.3,1013.0,319.9,1.3,1.6,335.5,0.00,-2.1,5.8,"02:10:48",1
"20/02/05","02:30",0.0,-0.3,89.7,1012.3,310.1,1.6,2.2,346.2,0.00,-1.7,5.9,"02:23:44",1
"20/02/05","02:40",0.0,-0.2,90.0,1012.3,307.5,1.5,2.1,317.8,0.00,-1.6,5.9,"02:35:52",1
"20/02/05","02:50",0.0,-0.4,90.2,1012.3,308.0,1.5,2.0,311.6,0.00,-1.8,5.9,"02:44:00",1
"20/02/05","03:00",0.0,-0.3,90.6,1012.6,302.1,1.2,1.9,312.3,0.00,-1.6,5.9,"02:50:02",1
"20/02/05","03:10",0.0,-0.4,90.8,1012.3,319.7,1.6,2.0,310.1,0.00,-1.7,5.9,"03:05:36",1
"20/02/05","03:20",0.0,-0.7,91.0,1012.3,330.2,1.3,2.4,334.9,0.00,-1.9,5.9,"03:16:40",1
"20/02/05","03:30",0.0,-1.2,91.4,1012.3,302.1,1.1,2.0,324.2,0.00,-2.4,5.7,"03:20:32",1
"20/02/05","03:40",0.0,-1.3,91.6,1012.3,309.0,1.2,1.7,318.6,0.00,-2.4,5.7,"03:32:40",1
"20/02/05","03:50",0.0,-1.2,91.9,1012.1,324.1,1.7,2.7,314.5,0.00,-2.3,5.7,"03:45:12",1
"20/02/05","04:00",0.0,-1.3,92.1,1012.1,319.2,1.5,1.8,308.4,0.00,-2.4,5.9,"03:50:32",1
"20/02/05","04:10",0.0,-1.4,92.3,1012.1,310.6,1.3,2.0,315.2,0.00,-2.4,5.6,"04:08:24",1
"20/02/05","04:20",0.0,-1.4,92.5,1012.1,325.4,1.8,2.4,319.7,0.00,-2.4,5.4,"04:14:24",1
"20/02/05","04:30",0.0,-1.5,92.7,1011.9,317.2,1.7,1.9,325.0,0.00,-2.5,5.1,"04:24:08",1
"20/02/05","04:40",0.0,-1.2,92.9,1012.1,320.7,1.7,2.1,320.1,0.00,-2.2,5.5,"04:32:32",1
"20/02/05","04:50",0.0,-1.4,92.9,1011.6,304.8,1.5,1.8,305.6,0.00,-2.4,5.3,"04:48:08",1
"20/02/05","05:00",0.0,-1.6,93.1,1011.4,324.7,1.6,2.0,328.8,0.00,-2.5,5.2,"04:51:04",1
"20/02/05","05:10",0.0,-1.8,93.3,1011.4,316.1,1.2,1.9,314.2,0.00,-2.7,5.3,"05:00:40",1
"20/02/05","05:20",0.0,-1.6,93.6,1011.4,323.4,2.0,2.4,337.7,0.00,-2.5,5.1,"05:16:40",1
"20/02/05","05:30",0.0,-1.7,93.6,1011.2,309.4,1.7,2.6,317.6,0.00,-2.6,5.0,"05:22:32",1
"20/02/05","05:40",0.0,-1.8,93.8,1011.4,313.4,1.7,2.0,321.2,0.00,-2.6,5.2,"05:30:24",1
"20/02/05","05:50",0.0,-1.7,94.0,1010.9,315.7,1.6,2.1,325.3,0.00,-2.5,5.2,"05:45:12",1
"20/02/05","06:00",0.0,-1.7,94.1,1011.2,314.0,1.5,2.2,325.0,0.00,-2.5,5.0,"05:56:48",1
"20/02/05","06:10",0.0,-1.7,94.2,1011.2,319.6,2.3,3.1,320.4,0.00,-2.5,4.9,"06:06:40",1
"20/02/05","06:20",0.0,-1.8,94.4,1011.2,316.8,1.8,2.8,321.0,0.00,-2.5,5.1,"06:10:56",1
"20/02/05","06:30",0.0,-2.0,94.5,1010.9,300.9,1.5,1.9,321.3,0.00,-2.7,4.9,"06:20:08",1
"20/02/05","06:40",0.0,-1.9,94.7,1010.9,317.3,2.0,2.4,322.4,0.00,-2.6,4.8,"06:31:28",1
"20/02/05","06:50",0.0,-2.0,94.9,1010.9,323.8,1.8,2.7,330.9,0.00,-2.7,4.8,"06:48:40",1
"20/02/05","07:00",0.0,-2.0,94.8,1010.9,310.9,1.5,2.4,315.7,0.00,-2.7,4.9,"06:53:28",1
"20/02/05","07:10",0.0,-2.2,95.1,1011.2,309.2,1.5,1.9,305.3,0.00,-2.8,4.8,"07:03:54",1
"20/02/05","07:20",0.0,-2.2,95.3,1011.2,311.0,1.8,2.5,307.8,0.00,-2.8,4.6,"07:15:24",1
"20/02/05","07:30",0.0,-2.2,95.4,1011.4,311.8,2.1,2.5,322.6,0.00,-2.8,4.7,"07:28:14",1
"20/02/05","07:40",0.0,-2.2,95.4,1011.2,316.7,2.1,2.8,325.1,0.00,-2.8,4.5,"07:32:00",1
"20/02/05","07:50",0.0,-2.0,95.6,1011.4,310.0,2.0,2.4,316.3,0.00,-2.6,4.7,"07:43:30",1
"20/02/05","08:00",0.0,-1.7,95.7,1011.4,312.8,1.7,2.5,317.8,0.00,-2.3,4.7,"07:50:16",1
"20/02/05","08:10",0.0,-1.4,95.8,1011.6,296.4,0.8,1.4,323.5,0.00,-1.9,4.5,"08:08:26",1
"20/02/05","08:20",0.0,-0.7,95.8,1011.9,313.4,1.5,2.2,313.9,0.01,-1.2,4.5,"08:13:36",1
"20/02/05","08:30",0.0,-0.5,95.7,1011.9,320.2,1.6,2.2,350.6,0.02,-1.1,4.6,"08:28:12",1
"20/02/05","08:40",0.0,0.0,95.8,1011.9,273.2,0.8,1.7,320.8,0.04,-0.5,4.7,"08:32:00",1
"20/02/05","08:50",0.0,0.7,95.8,1012.1,257.7,0.5,1.1,285.3,0.04,0.1,4.7,"08:47:20",1
"20/02/05","09:00",0.0,1.6,95.7,1012.3,303.6,1.6,2.0,315.1,0.05,1.0,4.7,"08:56:38",1
"20/02/05","09:10",0.0,2.4,95.4,1012.8,293.9,1.1,1.9,314.5,0.08,1.8,4.8,"09:02:40",1
"20/02/05","09:20",0.0,3.3,95.4,1012.6,262.4,0.6,1.1,244.9,0.11,2.7,4.9,"09:12:42",1
"20/02/05","09:30",0.0,3.6,95.1,1013.0,277.1,0.5,1.0,289.9,0.14,2.9,5.1,"09:26:10",1
"20/02/05","09:40",0.0,4.2,95.0,1012.8,283.5,0.8,1.1,284.9,0.16,3.5,5.3,"09:33:36",1
"20/02/05","09:50",0.0,4.7,94.1,1013.0,266.1,0.8,1.0,243.5,0.19,3.9,5.2,"09:48:42",1
"20/02/05","10:00",0.0,5.2,93.7,1013.3,221.0,0.7,1.3,151.5,0.21,4.3,5.3,"09:55:56",1
"20/02/05","10:10",0.0,5.9,92.4,1013.5,242.9,0.6,1.1,146.5,0.23,4.8,5.6,"10:08:34",1
"20/02/05","10:20",0.0,6.4,91.0,1014.0,276.9,1.0,2.5,331.4,0.25,5.1,5.9,"10:10:16",1
"20/02/05","10:30",0.0,7.2,89.4,1014.0,235.2,1.2,3.3,314.7,0.28,5.6,6.0,"10:29:20",1
"20/02/05","10:40",0.0,8.0,84.7,1014.5,275.8,1.5,4.1,235.1,0.30,5.6,6.4,"10:37:20",1
"20/02/05","10:50",0.0,8.8,76.8,1014.7,255.9,2.1,5.1,224.4,0.32,5.0,6.5,"10:43:12",1
"20/02/05","11:00",0.0,9.5,68.7,1014.2,263.8,2.5,5.6,230.1,0.36,4.1,6.6,"10:52:08",1
"20/02/05","11:10",0.0,9.6,63.7,1014.0,256.8,2.3,4.1,226.9,0.36,3.1,7.2,"11:09:20",1
"20/02/05","11:20",0.0,9.2,62.2,1014.0,265.3,2.5,4.3,240.6,0.16,2.4,7.2,"11:16:32",1
"20/02/05","11:30",0.0,9.0,61.6,1014.0,278.6,2.5,4.0,322.2,0.14,2.1,7.4,"11:28:56",1
"20/02/05","11:40",0.0,9.0,60.8,1013.8,293.2,2.6,4.7,337.2,0.15,1.9,7.5,"11:31:52",1
"20/02/05","11:50",0.0,9.3,58.4,1013.5,273.8,2.6,5.4,316.5,0.27,1.6,7.6,"11:42:48",1
"20/02/05","12:00",0.0,9.7,57.5,1013.3,319.3,3.4,6.4,336.4,0.40,1.8,7.8,"11:53:12",1
"20/02/05","12:10",0.0,10.4,56.7,1013.3,296.8,2.3,5.1,331.4,0.43,2.2,7.9,"12:01:28",1
"20/02/05","12:20",0.0,10.6,53.8,1013.0,277.2,2.1,4.9,317.3,0.45,1.7,8.1,"12:10:08",1
"20/02/05","12:30",0.0,9.6,54.2,1013.0,330.8,3.9,10.2,335.4,0.19,0.8,8.4,"12:22:16",1
"20/02/05","12:40",0.0,9.2,54.6,1012.8,307.6,3.1,4.8,335.7,0.09,0.6,8.3,"12:30:16",1
"20/02/05","12:50",0.0,8.9,55.8,1012.6,327.0,3.2,5.6,342.7,0.08,0.6,8.7,"12:42:56",1
"20/02/05","13:00",0.0,9.0,55.7,1012.3,319.8,2.7,4.3,312.3,0.09,0.7,8.4,"12:57:12",1
"20/02/05","13:10",0.0,9.2,55.3,1012.1,295.5,2.7,5.6,333.9,0.15,0.8,8.7,"13:06:56",1
"20/02/05","13:20",0.0,9.3,54.1,1012.6,318.5,4.5,8.2,329.5,0.20,0.5,8.4,"13:16:08",1
"20/02/05","13:30",0.0,9.4,53.6,1012.1,311.0,3.5,6.5,333.7,0.22,0.5,8.6,"13:27:28",1
"20/02/05","13:40",0.0,9.3,54.5,1011.9,306.7,3.1,4.5,262.3,0.14,0.6,8.7,"13:36:56",1
"20/02/05","13:50",0.0,9.1,54.2,1012.1,292.6,3.5,7.8,332.9,0.15,0.4,8.8,"13:48:08",1
"20/02/05","14:00",0.0,9.0,55.4,1012.1,297.9,3.5,7.4,346.4,0.11,0.6,8.8,"13:51:12",1
"20/02/05","14:10",0.0,8.9,55.8,1012.1,287.9,3.6,6.4,304.3,0.13,0.6,8.7,"14:03:12",1
"20/02/05","14:20",0.0,9.1,56.6,1012.1,291.7,3.9,7.7,263.9,0.24,1.0,8.7,"14:13:04",1
"20/02/05","14:30",0.0,9.0,57.5,1012.6,307.2,3.9,6.6,290.3,0.15,1.1,8.7,"14:26:32",1
"20/02/05","14:40",0.0,8.2,60.9,1012.6,331.6,4.7,9.1,337.6,0.09,1.2,8.7,"14:33:12",1
"20/02/05","14:50",0.0,7.7,63.3,1012.3,331.4,5.4,10.8,330.1,0.17,1.2,8.6,"14:48:06",1
"20/02/05","15:00",0.0,8.4,63.4,1012.6,334.6,4.7,9.6,329.2,0.28,1.9,8.7,"14:56:02",1
"20/02/05","15:10",0.0,8.5,61.8,1012.8,323.6,4.4,8.2,338.7,0.27,1.6,8.8,"15:02:00",1
"20/02/05","15:20",0.0,8.6,60.6,1012.8,338.5,4.2,6.8,328.2,0.32,1.5,8.8,"15:14:32",1
"20/02/05","15:30",0.0,8.9,61.2,1012.3,340.2,2.8,6.0,324.0,0.32,1.9,9.0,"15:28:56",1
"20/02/05","15:40",0.0,7.4,61.4,1013.3,345.2,5.0,11.0,344.0,0.16,0.5,8.9,"15:35:22",1
"20/02/05","15:50",0.0,7.0,64.3,1012.8,328.7,5.6,8.3,321.8,0.17,0.8,9.0,"15:43:38",1
"20/02/05","16:00",0.0,7.1,63.6,1013.0,333.4,6.0,11.2,323.7,0.19,0.7,9.0,"15:53:04",1
"20/02/05","16:10",0.0,7.0,62.9,1013.0,330.3,6.1,11.8,343.2,0.18,0.5,9.0,"16:08:14",1
"20/02/05","16:20",0.0,7.1,62.3,1013.0,322.8,6.0,11.3,348.7,0.15,0.4,8.9,"16:19:20",1
"20/02/05","16:30",0.0,6.8,62.2,1013.0,330.8,6.6,12.4,330.2,0.08,0.1,8.9,"16:27:46",1
"20/02/05","16:40",0.0,6.7,61.6,1013.3,335.3,6.4,10.8,340.6,0.12,-0.1,8.8,"16:39:04",1
"20/02/05","16:50",0.0,6.6,63.0,1013.3,335.1,6.4,10.0,341.6,0.13,0.1,8.9,"16:47:44",1
"20/02/05","17:00",0.0,5.9,65.9,1013.8,337.8,4.7,8.8,344.6,0.05,0.1,8.5,"16:58:14",1
"20/02/05","17:10",0.0,4.8,70.9,1013.5,334.5,4.0,8.6,333.8,0.02,0.0,8.7,"17:04:40",1
"20/02/05","17:20",0.0,4.5,72.2,1013.0,325.1,6.5,11.7,308.2,0.01,0.0,8.6,"17:14:08",1
"20/02/05","17:30",0.0,4.6,71.5,1013.0,324.8,6.9,11.3,332.0,0.00,-0.1,8.4,"17:25:10",1
"20/02/05","17:40",0.0,4.5,70.6,1013.3,321.3,6.9,11.2,335.2,0.00,-0.3,8.2,"17:39:34",1
"20/02/05","17:50",0.0,4.4,70.4,1013.3,328.1,7.1,11.0,339.9,0.00,-0.5,8.2,"17:46:16",1
"20/02/05","18:00",0.0,4.3,70.9,1013.3,320.8,5.4,10.5,323.5,0.00,-0.5,8.2,"17:50:24",1
"20/02/05","18:10",0.0,4.1,71.7,1013.8,294.8,3.1,6.5,331.7,0.00,-0.5,8.1,"18:00:16",1
"20/02/05","18:20",0.0,3.9,72.8,1014.0,299.6,3.1,5.1,339.8,0.00,-0.5,7.8,"18:19:52",1
"20/02/05","18:30",0.0,3.9,73.5,1013.8,311.7,3.7,7.7,320.5,0.00,-0.4,7.9,"18:22:40",1
"20/02/05","18:40",0.0,3.6,74.1,1013.5,302.0,2.8,4.4,328.5,0.00,-0.5,7.5,"18:37:52",1
"20/02/05","18:50",0.0,3.7,74.6,1013.8,292.3,3.6,8.2,280.8,0.00,-0.3,7.6,"18:45:04",1
"20/02/05","19:00",0.0,3.5,75.3,1013.8,300.5,2.3,4.9,311.6,0.00,-0.4,7.4,"18:59:28",1
"20/02/05","19:10",0.0,3.6,75.9,1014.2,322.6,3.1,7.5,331.7,0.00,-0.2,7.3,"19:07:36",1
"20/02/05","19:20",0.0,3.6,76.3,1014.2,293.1,2.7,4.8,333.8,0.00,-0.1,7.4,"19:10:16",1
"20/02/05","19:30",0.0,3.6,76.5,1014.5,293.5,3.0,5.7,314.4,0.00,-0.1,7.3,"19:23:28",1
"20/02/05","19:40",0.0,3.4,76.8,1014.5,290.4,2.0,4.0,328.3,0.00,-0.2,7.2,"19:39:12",1
"20/02/05","19:50",0.0,3.4,77.0,1014.7,298.0,2.6,5.2,328.2,0.00,-0.2,7.1,"19:47:44",1
"20/02/05","20:00",0.0,3.3,77.2,1014.5,308.2,2.1,4.0,338.7,0.00,-0.3,7.0,"19:51:52",1
"20/02/05","20:10",0.0,3.4,77.6,1014.9,302.4,2.1,4.0,326.0,0.00,-0.1,7.1,"20:08:40",1
"20/02/05","20:20",0.0,3.6,77.9,1014.5,293.7,3.1,6.0,322.0,0.00,0.2,6.9,"20:19:20",1
"20/02/05","20:30",0.0,3.4,78.2,1014.7,301.5,2.7,5.1,251.8,0.00,0.0,7.0,"20:27:04",1
"20/02/05","20:40",0.0,3.3,78.8,1014.9,312.1,3.5,7.4,332.2,0.00,0.0,6.8,"20:36:02",1
"20/02/05","20:50",0.0,3.2,79.5,1014.7,305.0,3.1,6.7,326.7,0.00,0.0,6.7,"20:49:36",1
"20/02/05","21:00",0.0,3.1,80.1,1014.9,293.3,3.2,5.2,310.4,0.00,0.0,6.7,"20:56:08",1
"20/02/05","21:10",0.0,3.1,80.9,1015.2,293.4,3.1,5.6,252.3,0.00,0.2,6.7,"21:07:28",1
"20/02/05","21:20",0.0,3.0,81.8,1015.2,307.1,3.6,6.2,330.3,0.00,0.2,6.7,"21:17:12",1
"20/02/05","21:30",0.0,3.0,82.6,1014.9,308.2,3.7,5.8,334.6,0.00,0.4,6.5,"21:24:16",1
"20/02/05","21:40",0.0,2.9,83.2,1015.2,296.3,3.2,6.2,353.0,0.00,0.4,6.5,"21:32:18",1
"20/02/05","21:50",0.0,2.9,83.7,1014.9,304.4,3.7,7.1,315.0,0.00,0.5,6.6,"21:47:22",1
"20/02/05","22:00",0.0,2.8,83.9,1015.6,310.7,4.1,7.5,346.7,0.00,0.4,6.2,"21:52:54",1
"20/02/05","22:10",0.0,2.7,84.3,1015.6,294.8,3.2,5.9,288.5,0.00,0.4,6.3,"22:00:18",1
"20/02/05","22:20",0.0,2.7,84.6,1015.6,315.9,3.5,7.8,343.0,0.00,0.4,6.4,"22:10:40",1
"20/02/05","22:30",0.0,2.7,84.8,1015.9,312.1,3.1,5.8,325.4,0.00,0.4,6.3,"22:22:16",1
"20/02/05","22:40",0.0,2.7,84.9,1015.9,301.7,3.9,7.5,336.2,0.00,0.5,6.5,"22:39:24",1
"20/02/05","22:50",0.0,2.7,84.8,1015.4,310.3,3.0,6.0,339.6,0.00,0.4,6.4,"22:43:36",1
"20/02/05","23:00",0.0,2.5,84.7,1015.6,322.1,2.8,4.9,320.2,0.00,0.2,6.3,"22:50:02",1
"20/02/05","23:10",0.0,2.3,84.6,1015.4,304.7,2.5,4.5,323.2,0.00,0.0,6.2,"23:05:20",1
"20/02/05","23:20",0.0,2.2,84.7,1015.2,284.1,2.0,4.0,336.1,0.00,-0.1,6.2,"23:10:48",1
"20/02/05","23:30",0.0,2.3,84.7,1015.9,269.3,2.3,4.3,305.0,0.00,0.0,6.1,"23:28:40",1
"20/02/05","23:40",0.0,2.3,84.8,1015.6,282.5,2.5,3.7,317.0,0.00,0.0,6.1,"23:39:36",1
"20/02/05","23:50",0.0,2.4,84.8,1015.9,286.7,2.8,5.1,286.5,0.00,0.1,6.0,"23:48:32",1
"20/02/05","24:00",0.0,2.4,85.0,1015.9,291.0,2.8,4.8,315.0,0.00,0.2,6.1,"23:50:32",1
